Sarasota, FL

11:25 AM EST on December 13, 2019 (GMT -0500)
Sarasota-bradenton

Weather History for KSRQ - October, 2019

Change the Weather History Date:

Saturday, October 19, 2019

  Actual Average Record
Temperature  
Mean Temperature 80 °F 76 °F  
Max Temperature 87 °F 85 °F 92 °F (1971)
Min Temperature 73 °F 67 °F 47 °F (1977)
Degree Days  
Heating Degree Days 0 0  
Month to date heating degree days 0 0  
Since 1 July heating degree days 0 0  
Cooling Degree Days 15 11  
Month to date cooling degree days 335 244  
Year to date cooling degree days 3792 3033  
Growing Degree Days 30 (Base 50)    
Moisture  
Dew Point 74 °F    
Average Humidity 84    
Maximum Humidity 94    
Minimum Humidity 63    
Precipitation  
Precipitation 2.64 in 0.09 in 2.75 in (1958)
Month to date precipitation 3.22 2.17  
Year to date precipitation 46.60 47.60  
Sea Level Pressure  
Sea Level Pressure 29.78 in    
Wind  
Wind Speed 14 mph ()    
Max Wind Speed 35 mph    
Max Gust Speed 43 mph    
Visibility 6.7 miles    
Events Rain , Thunderstorm    
T = Trace of Precipitation, MM = Missing Value Source: Averaged Metar Reports

Daily Weather History Graph

Daily Weather History Graph

Search for Another Location

Airport or City:

Astronomy

Oct. 19, 2019 Rise Set
Actual Time 7:32 AM EDT 6:57 PM EDT
Civil Twilight 7:08 AM EDT 7:21 PM EDT
Nautical Twilight 6:41 AM EDT 7:48 PM EDT
Astronomical Twilight 6:14 AM EDT 8:15 PM EDT
Moon 11:26 PM EDT (10/19) 12:42 PM EDT (10/19)
Length of Visible Light 12h 12m
Length of Day
11h 25m
Waning Gibbous, 70% of the Moon is Illuminated
Oct 19
Waning Gibbous
Oct 21
Last Quarter
Oct 27
New
Nov 4
First Quarter
Nov 12
Full

Hourly Weather History & Observations

Time (EDT) Temp. Heat Index Dew Point Humidity Pressure Visibility Wind Dir Wind Speed Gust Speed Precip Events Conditions
12:45 AM 78.1 °F - 75.0 °F 90% 29.80 in 9.0 mi ESE 11.5 mph - 0.08 in Rain , Thunderstorm Light Thunderstorms and Rain
12:53 AM 78.1 °F - 75.0 °F 90% 29.79 in 8.0 mi ESE 12.7 mph - 0.09 in Rain , Thunderstorm Thunderstorms and Rain
1:20 AM 78.1 °F - 75.0 °F 90% 29.80 in 8.0 mi ESE 12.7 mph - 0.03 in Rain Rain
1:53 AM 78.1 °F - 75.0 °F 90% 29.76 in 7.0 mi ESE 16.1 mph - 0.09 in Rain Rain
2:44 AM 79.0 °F - 75.0 °F 88% 29.79 in 4.0 mi SE 11.5 mph 21.9 mph 0.16 in Rain , Thunderstorm Heavy Rain
2:53 AM 78.1 °F - 75.0 °F 90% 29.79 in 2.5 mi SSE 6.9 mph - 0.24 in Rain Heavy Rain
3:10 AM 78.1 °F - 75.0 °F 90% 29.78 in 3.0 mi ESE 5.8 mph - 0.19 in Rain , Thunderstorm Heavy Rain
3:17 AM 78.1 °F - 75.0 °F 90% 29.78 in 4.0 mi ESE 12.7 mph - 0.24 in Rain , Thunderstorm Heavy Rain
3:30 AM 78.1 °F - 75.0 °F 90% 29.80 in 1.8 mi SSE 12.7 mph - 0.43 in Rain , Thunderstorm Heavy Rain
3:35 AM 78.1 °F - 75.0 °F 90% 29.79 in 1.5 mi SSW 11.5 mph 18.4 mph 0.54 in Rain Heavy Rain
3:49 AM 75.2 °F - 73.4 °F 94% 29.76 in 1.0 mi SE 29.9 mph 41.4 mph 1.03 in Rain Heavy Rain
3:53 AM 75.9 °F - 72.0 °F 87% 29.76 in 1.2 mi SSE 25.3 mph 41.4 mph 1.04 in Rain Rain
3:57 AM 75.9 °F - 72.0 °F 87% 29.76 in 4.0 mi SSE 15.0 mph 35.7 mph 0.02 in Rain Rain
4:05 AM 77.0 °F - 73.0 °F 88% 29.75 in 8.0 mi SE 13.8 mph - 0.04 in Rain Rain
4:48 AM 77.0 °F - 73.4 °F 89% 29.76 in 10.0 mi SE 12.7 mph - 0.14 in Rain Light Rain
4:53 AM 75.9 °F - 73.0 °F 91% 29.74 in 9.0 mi ESE 10.4 mph - 0.15 in Rain Rain
5:38 AM 77.0 °F - 73.9 °F 90% 29.74 in 8.0 mi ESE 13.8 mph - 0.08 in Rain Rain
5:53 AM 75.9 °F - 73.0 °F 91% 29.75 in 9.0 mi SE 15.0 mph 24.2 mph 0.11 in Rain Light Rain
6:53 AM 77.0 °F - 73.9 °F 90% 29.75 in 5.0 mi SE 10.4 mph 19.6 mph 0.10 in Rain Heavy Rain
7:25 AM 78.1 °F - 73.9 °F 87% 29.79 in 1.5 mi SSW 26.5 mph 39.1 mph 0.29 in Rain Heavy Rain
7:32 AM 75.0 °F - 71.1 °F 87% 29.79 in 1.2 mi South 18.4 mph 39.1 mph 0.37 in Rain Heavy Rain
7:36 AM 75.0 °F - 70.0 °F 84% 29.79 in 3.0 mi South 12.7 mph 27.6 mph 0.38 in Rain Rain
7:48 AM 75.2 °F - 71.6 °F 89% 29.79 in 2.5 mi South 6.9 mph - 0.48 in Rain Heavy Rain
7:53 AM 73.9 °F - 71.1 °F 91% 29.79 in 2.0 mi South 4.6 mph - 0.54 in Rain Heavy Rain
7:59 AM 75.0 °F - 71.1 °F 87% 29.79 in 3.0 mi South 10.4 mph - 0.02 in Rain Rain
8:30 AM 77.0 °F - 73.0 °F 88% 29.79 in 2.5 mi SSW 19.6 mph 27.6 mph 0.12 in Rain Heavy Rain
8:37 AM 77.0 °F - 73.0 °F 88% 29.79 in 6.0 mi SSW 15.0 mph 32.2 mph 0.12 in Rain Light Rain
8:45 AM 78.1 °F - 73.0 °F 84% 29.79 in 10.0 mi South 13.8 mph 19.6 mph 0.12 in Rain Light Rain
8:53 AM 78.1 °F - 73.9 °F 87% 29.79 in 9.0 mi South 17.3 mph - 0.12 in Rain Light Rain
9:35 AM 77.0 °F - 73.0 °F 88% 29.83 in 2.0 mi South 20.7 mph 31.1 mph 0.06 in Rain Light Rain
9:53 AM 75.9 °F - 72.0 °F 87% 29.83 in 2.0 mi South 20.7 mph 32.2 mph 0.11 in Rain Rain
9:58 AM 75.0 °F - 71.1 °F 87% 29.82 in 3.0 mi South 18.4 mph 32.2 mph 0.01 in Rain Rain
10:51 AM 78.8 °F - 73.4 °F 83% 29.81 in 10.0 mi South 18.4 mph 32.2 mph 0.04 in   Overcast
10:53 AM 79.0 °F - 73.9 °F 84% 29.81 in 10.0 mi South 23.0 mph 32.2 mph 0.04 in   Overcast
11:00 AM 80.1 °F 84.2 °F 73.0 °F 79% 29.81 in 10.0 mi South 20.7 mph 32.2 mph N/A   Overcast
11:53 AM 82.0 °F 86.7 °F 72.0 °F 71% 29.78 in 10.0 mi South 25.3 mph 38.0 mph N/A   Overcast
12:53 PM 84.9 °F 90.7 °F 72.0 °F 65% 29.78 in 10.0 mi South 28.8 mph 41.4 mph N/A   Overcast
1:53 PM 87.1 °F 94.5 °F 73.0 °F 63% 29.76 in 10.0 mi SSW 28.8 mph 39.1 mph N/A   Partly Cloudy
2:53 PM 84.9 °F 92.1 °F 73.9 °F 69% 29.75 in 10.0 mi SSW 17.3 mph 36.8 mph N/A   Overcast
3:53 PM 86.0 °F 93.8 °F 73.9 °F 67% 29.74 in 10.0 mi SSW 21.9 mph 31.1 mph N/A   Overcast
4:46 PM 84.9 °F 94.1 °F 75.9 °F 74% 29.74 in 10.0 mi SSW 18.4 mph 26.5 mph N/A   Overcast
4:53 PM 84.9 °F 94.1 °F 75.9 °F 74% 29.74 in 10.0 mi SSW 23.0 mph 29.9 mph N/A   Overcast
5:29 PM 82.0 °F 89.4 °F 75.9 °F 82% 29.74 in 10.0 mi SSW 13.8 mph - 0.01 in   Scattered Clouds
5:53 PM 84.0 °F 92.6 °F 75.9 °F 76% 29.75 in 10.0 mi SW 15.0 mph - 0.01 in   Partly Cloudy
6:53 PM 82.9 °F 91.8 °F 77.0 °F 82% 29.75 in 10.0 mi SSW 16.1 mph 21.9 mph N/A   Partly Cloudy
7:53 PM 82.9 °F 91.8 °F 77.0 °F 82% 29.77 in 10.0 mi SSW 11.5 mph 25.3 mph N/A   Partly Cloudy
8:53 PM 82.9 °F 91.8 °F 77.0 °F 82% 29.79 in 10.0 mi SSW 15.0 mph - N/A   Partly Cloudy
9:53 PM 82.9 °F 91.8 °F 77.0 °F 82% 29.81 in 10.0 mi SSW 15.0 mph - N/A   Overcast
10:53 PM 82.9 °F 90.8 °F 75.9 °F 79% 29.83 in 10.0 mi WSW 11.5 mph - 0.00 in   Overcast
11:00 PM 82.9 °F 90.8 °F 75.9 °F 79% 29.83 in 10.0 mi WSW 10.4 mph - N/A   Partly Cloudy
11:53 PM 82.9 °F 90.8 °F 75.9 °F 79% 29.84 in 10.0 mi WSW 11.5 mph - N/A   Clear